Find DSP F12

NORAD ID: 15453 Int'l Des: 1984-129 Owner: AFSD Country: US operational
HEOCIRCULAR

Live-Position

3D-Globus wird geladen...

Über DSP F12

Beschreibung wird geladen...

Nächste Überflüge

Passes for default location (London). Set your location on the main map for personalized predictions.

Höhenverlauf

Loading altitude history...

Zweizeiliger Elementsatz

1 15453U 84129A 26106.93082108 -.00000215 00000-0 00000-0 0 9997
2 15453 11.5938 321.3727 0002614 309.5340 225.0740 0.98857157 25444
Epoch: 16. Apr. 2026 • Age: 19 hours

Aktueller Status

Höhe 36195.7 km
Geschwindigkeit 3.06 km/s
Subsatellitenpunkt 11.58°N, 48.08°W
Startdatum 22. Dez. 1984
Alter 41.3 years
Typ military

Technische Details

Klassifizierung Payload
Masse 1680.00 kg
Trockenmasse 1600.00 kg
Gesamtmasse 1680.00 kg
Länge 7.10 m
Durchmesser 3.10 m
Spannweite 8.60 m
Form Cyl + 4 Pan
Hersteller TRW
Bus-Typ DSP P2U
Phasenstatus Unknown Transfer Status
Besitzer/Staat AFSD/US

Most Searched